EHI
0 0 0 0 0 0 0 0 0 0 0 0 0 0 0 0 0 0 0 0 0 0 0 0 0 0 0 0 0 0 0 1 0 0 1 1 0 0 0 0 0 0 0
0 0 0 0 0 0 0 0 0 0 0 0 0 0 0 0 0 0 0 0 0 0 0 0 0 0 0 0 0 0 1 1 0 0 1 1 0 0 0 0 0 0 0
0 0 0 0 0 0 0 0 0 0 0 0 0 0 0 0 0 0 0 0 0 0 0 0 0 0 0 0 0 0 1 1 0 0 1 1 0 0 0 0 0 0 0
0 0 1 1 1 0 0 0 0 0 0 0 0 0 0 0 0 0 0 0 0 0 0 0 0 0 0 1 0 0 0 0 0 0 1 1 1 0 0 0 0 0 0
0 0 1 2 1 0 0 0 1 1 0 0 0 0 0 0 0 0 0 0 0 0 0 0 0 0 0 0 0 0 0 0 0 0 1 2 1 0 0 0 0 0 0
0 0 0 1 1 0 0 1 2 1 0 0 0 0 0 0 0 0 0 0 0 0 0 0 0 0 0 0 0 1 1 1 0 0 1 2 1 0 0 0 0 0 0
0 0 0 0 0 0 1 2 2 1 0 0 0 0 0 0 0 0 0 0 0 0 0 0 0 0 0 0 0 1 2 1 0 0 0 0 0 0 0 0 0 0 0
0 0 0 0 0 0 0 1 1 1 0 0 0 0 0 0 0 0 0 0 0 0 0 0 0 0 0 0 0 1 1 0 0 0 0 0 0 0 0 0 0 0 0
0 0 0 0 0 0 0 0 0 0 0 0 0 0 0 0 0 0 0 0 0 0 0 0 0 0 0 0 0 0 0 0 0 0 0 0 0 0 0 0 0 0 0
0 0 0 0 0 0 0 0 0 0 0 0 0 0 0 0 0 0 0 0 0 0 0 0 0 0 0 0 0 0 0 0 0 0 0 0 0 0 0 0 0 0 0
0 0 0 0 0 0 0 0 0 0 0 0 0 0 0 0 0 0 0 0 0 0 0 0 0 0 0 0 0 0 0 0 0 0 0 0 0 0 0 0 0 0 0
0 0 0 0 0 0 0 0 0 0 0 0 0 0 0 0 0 0 0 0 0 0 0 0 0 0 0 0 0 0 0 0 0 0 0 0 0 0 0 0 0 0 0
0 0 0 0 0 0 0 0 0 0 0 0 0 0 0 0 0 0 0 0 0 0 0 0 0 0 0 0 0 0 0 0 0 0 0 0 0 0 0 0 0 0 0
0 0 0 0 0 0 0 0 0 0 0 0 0 0 0 0 0 0 0 0 0 0 0 0 0 0 0 0 0 0 0 0 0 0 0 0 0 0 0 0 0 0 0
0 0 0 0 1 1 0 0 0 0 0 0 0 0 0 0 0 0 0 0 0 0 0 0 0 0 0 0 0 0 0 0 0 0 0 0 0 0 0 0 0 0 0
0 0 0 0 1 2 1 0 0 0 0 1 1 0 0 0 0 0 0 0 0 0 0 0 0 0 0 0 0 0 0 0 0 0 0 0 0 0 0 0 0 0 0
0 0 0 0 1 1 1 1 1 0 0 1 1 0 0 0 0 0 0 0 0 0 0 0 0 0 0 0 0 0 0 0 0 0 0 0 0 0 0 0 0 0 0
0 0 0 0 0 0 1 1 1 0 0 1 1 1 1 1 0 0 0 0 0 0 0 0 0 0 0 0 0 0 0 0 0 0 0 0 0 0 0 0 0 0 0
0 0 0 0 0 0 0 1 1 0 0 1 1 2 2 2 1 0 1 1 0 0 0 0 0 0 0 0 0 0 0 0 0 0 0 0 0 0 0 0 0 0 0
0 0 0 0 0 0 0 0 0 0 0 1 3 3 3 2 1 1 1 1 0 0 0 0 0 0 0 0 0 0 0 0 0 0 0 0 0 0 0 0 0 0 0
0 0 0 0 0 0 0 0 0 0 0 1 3 3 3 3 2 3 4 3 2 1 0 0 0 0 0 0 0 0 0 0 0 0 0 0 0 0 0 0 0 0 0
0 0 0 0 0 0 0 0 0 0 1 2 3 2 3 4 6 7 8 8 7 5 2 0 0 0 0 0 0 0 0 0 0 0 0 0 0 0 0 0 0 0 0
0 0 0 0 0 0 0 0 0 0 1 2 3 2 2 4 7 10 11 12 12 9 5 2 0 1 1 1 0 0 0 0 0 0 0 0 0 0 0 0 0 0 0
0 0 0 0 0 0 0 0 0 0 0 1 1 2 3 3 5 9 11 14 16 15 11 5 2 3 4 3 1 0 0 0 0 0 0 0 0 0 0 0 0 0 0
0 0 0 0 0 0 0 0 0 0 0 0 0 1 2 2 2 5 9 13 16 17 14 9 6 5 5 4 1 0 0 0 0 0 0 0 0 0 0 0 0 0 0
0 0 0 1 1 1 0 0 0 0 0 0 0 1 2 1 1 2 6 11 15 15 13 11 7 6 6 4 1 1 1 1 0 0 0 0 0 0 0 0 0 0 0
Wind_Speed
11 13 14 12 11 11 10 9 9 9 9 8 8 8 7 7 6 5 5 4 3 3 3 3 3 3 4 4 4 4 5 6 6 7 8 7 7 7 7 5 3 6 8
14 14 15 12 12 11 10 10 9 9 8 8 7 7 6 5 4 4 3 3 3 3 3 3 3 4 4 4 4 5 5 6 7 7 6 7 7 6 6 5 4 6 6
15 14 14 12 12 11 10 9 9 9 8 8 7 7 6 5 4 3 3 3 3 2 2 3 3 4 4 4 5 5 5 6 7 5 2 5 7 7 6 5 6 6 5
14 13 13 13 12 11 10 9 8 8 8 7 7 6 6 5 5 4 3 3 2 2 2 3 3 4 4 4 5 5 5 6 5 2 1 5 6 8 6 5 6 5 4
12 11 12 13 12 11 10 9 8 8 7 7 7 6 6 6 5 4 4 3 2 2 2 2 3 4 4 4 4 4 5 6 4 2 5 5 6 6 5 6 5 5 4
11 10 12 12 11 10 10 9 9 8 8 7 7 6 6 6 5 5 4 4 3 3 3 3 3 4 4 4 4 4 5 5 6 4 4 4 5 6 5 5 5 5 5
11 10 12 11 11 10 9 9 9 8 8 8 7 7 6 6 5 5 5 4 4 3 3 3 3 3 4 4 3 4 5 3 2 4 4 4 6 4 4 4 4 5 5
8 8 10 11 9 9 9 9 9 9 9 9 9 8 7 6 6 6 5 5 5 4 4 4 4 4 4 4 3 3 3 4 4 4 4 5 6 3 3 3 3 5 5
6 7 7 10 11 10 8 8 9 9 9 10 9 9 8 7 7 6 6 5 5 5 4 4 4 5 4 4 3 3 3 2 1 3 4 5 5 3 3 3 3 4 5
5 6 6 6 6 8 10 11 9 9 10 10 10 10 9 8 8 8 8 7 6 5 5 5 5 5 5 4 3 3 2 6 3 4 3 7 5 3 3 2 2 3 4
3 4 5 6 5 6 6 6 9 10 11 10 11 11 10 10 10 10 8 8 6 5 5 5 5 5 5 6 4 3 5 4 3 1 3 7 3 2 3 2 2 2 3
2 3 5 6 6 7 6 6 6 7 8 9 8 10 9 8 5 5 9 8 6 6 6 5 5 7 9 7 8 8 5 5 4 2 5 5 2 2 2 2 2 2 2
7 6 6 6 7 7 6 6 5 4 5 7 9 9 7 6 5 6 6 9 9 9 9 9 9 8 7 4 4 5 3 3 2 2 6 5 1 1 2 3 2 2 2
10 10 9 8 7 8 7 6 6 6 5 6 7 9 6 5 6 6 5 5 5 5 5 6 5 6 7 7 8 7 7 4 2 1 6 5 2 1 2 3 3 3 2
11 11 10 9 9 7 7 6 7 7 7 7 6 7 8 6 7 7 6 5 6 6 6 6 7 6 6 7 6 6 6 5 3 2 5 6 3 1 1 3 4 4 4
10 11 10 10 9 8 6 5 5 6 6 7 6 9 9 7 7 7 7 6 6 6 6 6 8 6 6 6 6 6 6 5 5 4 3 7 6 3 1 1 3 4 5
10 10 10 9 9 8 7 7 5 5 6 6 7 8 9 8 9 8 7 7 7 7 8 7 7 6 6 6 7 7 6 5 5 5 4 2 5 7 4 1 1 2 4
10 10 9 8 9 9 7 6 5 5 6 6 6 6 9 9 10 8 7 7 7 6 6 6 6 6 7 7 7 6 6 5 7 5 4 5 3 3 7 5 2 1 2
10 10 10 9 9 9 9 7 6 6 6 5 5 5 7 9 9 8 7 7 8 6 6 6 7 7 6 6 6 5 6 6 6 6 7 6 5 4 3 8 5 3 2
10 10 10 9 9 9 7 7 6 5 5 5 6 6 8 7 9 8 7 8 7 6 6 6 6 6 5 5 6 6 6 6 6 6 6 5 5 6 5 5 6 7 5
11 11 10 10 9 8 6 6 6 5 5 5 6 8 9 10 10 9 7 8 7 7 7 8 6 7 6 6 6 6 6 8 8 6 6 6 6 5 6 6 4 4 6
12 11 11 10 10 9 6 7 6 7 6 6 5 7 10 11 11 10 11 9 8 7 8 8 6 4 4 4 5 5 6 7 7 8 7 7 8 7 8 7 7 6 4
12 12 10 11 10 9 9 6 6 6 6 5 5 5 7 9 11 11 12 11 10 9 7 8 9 9 6 5 5 4 5 6 5 6 9 9 8 6 7 7 8 8 7
13 11 11 10 10 9 8 7 8 6 7 6 5 5 5 6 8 10 11 11 10 9 9 10 10 8 8 6 5 5 4 3 3 4 6 8 8 8 8 6 7 8 8
13 11 10 9 9 8 7 7 7 6 6 5 5 5 4 4 5 6 8 8 9 8 9 10 10 10 9 8 6 5 5 2 5 3 4 4 5 6 7 7 7 6 6
12 11 10 9 9 9 8 7 6 7 6 6 5 4 3 2 2 4 5 6 7 7 8 9 10 12 10 10 8 7 5 4 4 4 4 3 3 3 4 4 5 5 5
Wind_Direction
151 147 141 148 144 138 132 127 125 127 131 137 144 151 158 164 170 174 180 186 187 190 187 171 158 145 132 123 118 112 105 97 93 91 91 91 90 91 94 103 139 112 108
147 145 143 149 146 142 137 133 132 132 133 136 140 145 150 152 156 164 172 177 180 185 178 165 160 153 142 136 130 122 109 100 91 89 100 106 91 85 90 82 37 84 109
146 144 148 150 148 145 140 139 138 137 137 138 141 144 146 147 150 153 157 159 165 167 162 157 158 152 146 138 129 123 113 103 94 94 184 107 99 83 80 87 88 98 108
147 149 149 147 151 149 147 147 145 142 142 142 143 145 145 145 147 148 146 146 149 152 153 150 152 153 146 135 130 127 121 112 107 219 138 78 88 84 76 81 92 98 107
150 150 139 153 155 155 154 154 149 147 147 148 147 147 147 145 144 140 135 132 130 133 139 138 141 141 134 126 128 128 124 119 136 227 72 70 75 79 74 77 85 92 95
155 154 145 160 160 161 162 161 156 157 156 156 154 150 148 146 146 143 140 135 128 123 122 122 129 130 127 122 122 121 121 135 193 97 87 85 85 82 70 69 78 89 90
160 159 152 164 168 171 172 170 169 169 168 168 167 163 163 159 156 153 147 138 133 125 118 116 127 127 125 122 115 106 116 172 138 108 108 89 79 78 76 75 73 85 91
164 169 157 164 180 182 183 183 182 181 180 180 179 176 176 174 168 162 156 146 138 129 122 115 123 127 125 123 116 108 134 238 137 119 104 93 76 87 80 81 80 86 94
171 185 186 177 183 190 200 201 197 194 193 190 188 186 185 183 180 175 170 163 153 144 136 126 126 130 130 131 127 116 110 321 192 124 117 91 87 87 80 73 77 88 94
189 205 213 206 204 202 198 200 211 211 208 202 196 195 193 192 194 191 193 173 171 164 153 140 135 135 133 131 131 130 162 229 195 151 119 92 91 88 84 80 83 93 98
235 246 243 245 234 243 243 204 211 219 218 213 204 200 205 211 199 193 192 157 184 182 172 162 154 145 154 149 142 167 223 219 158 172 88 86 102 108 105 102 103 110 108
314 280 274 268 258 250 250 244 234 230 218 221 221 206 212 223 214 215 139 175 198 196 190 185 174 181 214 183 163 200 211 193 187 167 99 100 127 148 138 129 119 121 124
0 350 317 296 279 268 254 255 250 246 239 236 236 225 224 223 216 219 190 183 196 199 204 175 200 210 211 197 202 197 193 214 192 158 105 107 130 180 168 162 158 153 151
14 5 353 335 308 284 270 260 255 249 244 240 237 237 227 225 232 223 219 211 197 201 212 216 224 205 220 199 204 208 181 209 196 135 102 107 118 187 197 189 188 186 184
10 2 356 348 339 322 299 280 271 267 263 256 246 248 233 228 235 231 224 214 220 212 199 217 225 210 222 222 209 218 203 187 185 174 119 122 119 123 224 210 201 195 194
7 359 352 348 346 331 315 296 284 284 276 274 263 254 249 237 239 237 236 222 223 219 217 217 217 206 215 217 215 212 226 203 197 182 159 144 149 141 126 245 224 208 198
359 353 349 342 346 337 322 311 297 287 287 281 270 265 258 246 245 240 242 231 221 216 216 219 217 215 214 209 217 225 219 224 213 201 175 177 156 155 162 185 214 214 201
349 344 342 339 338 335 324 305 289 281 274 272 277 274 270 260 250 247 241 241 234 225 221 210 219 212 211 214 219 213 215 205 225 219 205 194 183 159 159 157 169 188 202
340 335 333 335 331 327 320 302 284 272 263 261 261 263 269 269 261 250 244 242 235 225 225 219 210 216 220 221 228 222 226 210 210 214 221 210 178 201 168 145 168 170 173
331 327 327 326 323 322 315 307 294 279 266 254 248 244 248 256 257 252 247 243 235 219 214 218 215 216 230 229 236 229 226 219 220 216 227 223 214 193 197 173 180 163 165
331 326 322 320 322 320 315 312 310 300 290 270 251 241 236 237 239 239 240 238 229 219 211 207 205 214 219 225 234 230 226 224 229 212 219 224 218 204 207 199 205 180 163
331 325 321 322 320 316 309 303 292 292 283 277 270 254 240 233 231 232 231 230 223 218 213 206 194 204 214 220 227 233 232 221 222 228 223 226 233 205 217 207 201 192 195
332 329 323 322 315 311 308 300 296 290 280 271 265 258 248 239 232 229 231 228 223 216 214 204 198 199 199 208 232 226 228 227 214 210 219 222 228 228 220 218 212 195 193
336 331 324 322 317 315 310 300 296 289 287 289 288 276 264 251 241 231 229 228 226 219 214 212 205 203 196 195 209 235 248 271 225 209 207 221 221 223 229 219 226 220 201
341 336 329 325 321 319 314 306 297 291 288 289 285 278 263 249 245 237 229 225 222 217 216 215 207 204 202 199 192 194 216 244 253 244 223 207 209 218 225 227 219 221 215
353 348 342 337 333 334 330 322 316 313 308 307 303 296 281 254 238 228 222 220 217 213 213 213 211 207 207 203 198 193 188 187 206 221 232 232 233 226 227 229 240 222 219